Location: Joplin, MO
(37.0842°N, 94.5133°W)
Time: 12:27:56
(UTC+02:00)

Vanguard 3 - Visible Passes

Search period start: 29 March 2023 00:00
Search period end: 08 April 2023 00:00
Orbit: 508 x 3249 km, 33.4° (Epoch: 28 March)

Date Brightness Start Highest point End Pass type
(mag) Time Alt. Az. Time Alt. Az. Time Alt. Az.
29 Mar 11.1 07:48:35 17° E 07:48:35 17° E 07:52:51 10° E visible
29 Mar 10.0 09:52:56 59° SE 09:52:56 59° SE 10:11:19 10° E visible
29 Mar 10.0 11:57:16 34° WSW 12:08:51 78° S 12:26:40 10° E visible
30 Mar 10.5 08:40:43 35° ESE 08:40:43 35° ESE 08:52:04 10° E visible
30 Mar 9.8 10:45:04 60° SW 10:49:33 72° SSE 11:08:47 10° E visible
30 Mar 10.0 12:49:24 17° W 13:06:43 78° S 13:23:22 10° ESE visible
31 Mar 11.2 07:28:28 15° E 07:28:28 15° E 07:31:35 10° E visible
31 Mar 9.9 09:32:49 59° SE 09:32:49 59° SE 09:50:07 10° E visible
31 Mar 10.0 11:37:09 38° WSW 11:47:20 79° S 12:05:57 10° E visible
01 Apr 10.6 08:20:34 33° E 08:20:34 33° E 08:30:39 10° E visible
01 Apr 9.7 10:24:54 66° SW 10:28:00 74° SSE 10:47:43 10° E visible
01 Apr 10.0 12:29:14 20° W 12:45:12 77° S 13:02:46 10° ESE visible
02 Apr 11.2 07:08:17 13° E 07:08:17 13° E 07:10:08 10° E visible
02 Apr 9.9 09:12:38 57° ESE 09:12:38 57° ESE 09:28:45 10° E visible
02 Apr 9.9 11:16:58 43° WSW 11:25:45 79° S 11:45:02 10° E visible
02 Apr 10.1 13:23:09 10° W 13:42:45 68° SSW 13:59:01 10° ESE visible
03 Apr 10.6 08:00:21 30° E 08:00:21 30° E 08:09:05 10° E visible
03 Apr 9.6 10:04:42 72° SSW 10:06:29 75° SSE 10:26:29 10° E visible
03 Apr 10.0 12:09:02 23° W 12:23:36 76° S 12:41:58 10° ESE visible
04 Apr 11.2 06:48:05 11° E 06:48:05 11° E 06:48:34 10° E visible
04 Apr 10.0 08:52:25 54° ESE 08:52:25 54° ESE 09:07:13 10° E visible
04 Apr 9.8 10:56:46 48° WSW 11:04:10 79° S 11:23:56 10° E visible
04 Apr 10.1 13:01:58 10° W 13:21:08 66° SSW 13:38:15 10° SE visible
05 Apr 10.7 07:40:10 27° E 07:40:10 27° E 07:47:22 10° E visible
05 Apr 9.6 09:44:31 76° S 09:45:00 76° S 10:05:04 10° E visible
05 Apr 10.0 11:48:51 26° W 12:01:57 75° SSW 12:20:57 10° ESE visible
06 Apr 10.0 08:32:17 49° ESE 08:32:17 49° ESE 08:45:33 10° E visible
06 Apr 9.8 10:36:38 53° WSW 10:42:36 79° S 11:02:39 10° E visible
06 Apr 10.1 12:40:58 10° W 12:59:24 63° SSW 13:17:15 10° SE visible
07 Apr 10.7 07:20:05 23° E 07:20:05 23° E 07:25:34 10° E visible
07 Apr 9.5 09:24:26 76° SSE 09:24:26 76° SSE 09:43:29 10° E visible
07 Apr 9.9 11:28:47 30° W 11:40:16 73° SSW 11:59:45 10° ESE visible
